Vancouver, WA

4:12 PM PDT on September 24, 2016 (GMT -0700)
Pearson

Weather History for KVUO - April, 2013

Change the Weather History Date:

Sunday, April 21, 2013

  Actual Average Record
Temperature  
Mean Temperature 49 °F 53 °F  
Max Temperature 55 °F 62 °F 88 °F (1947)
Min Temperature 42 °F 43 °F 30 °F (1976)
Degree Days  
Heating Degree Days 16    
Month to date heating degree days 301  
Since 1 July heating degree days 3864  
Cooling Degree Days 0    
Month to date cooling degree days 0  
Year to date cooling degree days 0  
Moisture  
Dew Point 44 °F    
Average Humidity 80    
Maximum Humidity 93    
Minimum Humidity 66    
Precipitation  
Precipitation 0.01 in 0.11 in 0.52 in (1961)
Month to date precipitation 2.11 2.18  
Year to date precipitation 8.25 15.28  
Snow  
Snow 0.00 in - - ()
Month to date snowfall 0.0  
Snow Depth 0.00 in    
Sea Level Pressure  
Sea Level Pressure 30.29 in    
Wind  
Wind Speed 1 mph (NNW)    
Max Wind Speed 7 mph    
Max Gust Speed 10 mph    
Visibility 10 miles    
Events Rain    
T = Trace of Precipitation, MM = Missing Value Source: NWS Daily Summary

Daily Weather History Graph

Daily Weather History Graph

Search for Another Location

Airport or City:

Trip Planner

Search our weather history database for the weather conditions in past years. The results will help you decide how hot, cold, wet, or windy it might be!

Date:

Astronomy

Apr. 21, 2013 Rise Set
Actual Time 6:13 AM PDT 8:05 PM PDT
Civil Twilight 5:42 AM PDT 8:37 PM PDT
Nautical Twilight 5:03 AM PDT 9:16 PM PDT
Astronomical Twilight 4:21 AM PDT 9:58 PM PDT
Moon 3:44 PM PDT (4/21) 3:52 AM PDT (4/21)
Length of Visible Light 14h 54m
Length of Day
13h 51m
Waxing Gibbous, 81% of the Moon is Illuminated
Apr 21
Waxing Gibbous
Apr 25
Full
May 2
Last Quarter
May 9
New
May 17
First Quarter

Hourly Weather History & Observations

Time (PDT) Temp. Windchill Dew Point Humidity Pressure Visibility Wind Dir Wind Speed Gust Speed Precip Events Conditions
12:53 AM 48.9 °F - 41.0 °F 74% 30.32 in 10.0 mi NNW 5.8 mph - N/A   Overcast
1:53 AM 48.0 °F - 41.0 °F 77% 30.31 in 10.0 mi NW 3.5 mph - N/A   Overcast
2:53 AM 48.0 °F - 41.0 °F 77% 30.30 in 10.0 mi Calm Calm - N/A   Overcast
3:53 AM 48.0 °F - 41.0 °F 77% 30.30 in 10.0 mi Calm Calm - N/A   Overcast
4:53 AM 46.9 °F - 42.1 °F 83% 30.29 in 10.0 mi Calm Calm - N/A   Overcast
5:53 AM 48.0 °F - 41.0 °F 77% 30.30 in 10.0 mi Calm Calm - N/A   Overcast
6:53 AM 48.0 °F - 42.1 °F 80% 30.30 in 10.0 mi Calm Calm - N/A   Overcast
7:53 AM 48.0 °F - 42.1 °F 80% 30.30 in 10.0 mi Calm Calm - N/A   Overcast
8:53 AM 48.9 °F - 42.1 °F 77% 30.29 in 10.0 mi Calm Calm - N/A   Overcast
9:53 AM 48.9 °F - 41.0 °F 74% 30.29 in 10.0 mi Calm Calm - N/A   Overcast
10:37 AM 48.2 °F - 42.8 °F 82% 30.29 in 10.0 mi Calm Calm - 0.00 in   Overcast
10:53 AM 50.0 °F - 43.0 °F 77% 30.29 in 10.0 mi Calm Calm - 0.00 in   Overcast
11:53 AM 51.1 °F - 43.0 °F 74% 30.28 in 10.0 mi Calm Calm - N/A   Overcast
12:53 PM 52.0 °F - 42.1 °F 69% 30.28 in 10.0 mi Calm Calm - 0.00 in   Overcast
1:53 PM 53.1 °F - 43.0 °F 69% 30.28 in 10.0 mi Calm Calm - N/A   Overcast
2:02 PM 51.8 °F - 42.8 °F 71% 30.28 in 10.0 mi Calm Calm - N/A   Overcast
2:48 PM 51.8 °F - 42.8 °F 71% 30.28 in 10.0 mi ESE 3.5 mph - N/A   Overcast
2:53 PM 53.1 °F - 43.0 °F 69% 30.28 in 10.0 mi SSE 3.5 mph - N/A   Overcast
3:53 PM 54.0 °F - 44.1 °F 69% 30.27 in 10.0 mi Calm Calm - N/A   Overcast
4:25 PM 55.4 °F - 44.6 °F 67% 30.26 in 10.0 mi Calm Calm - N/A   Overcast
4:53 PM 52.0 °F - 46.9 °F 83% 30.27 in 10.0 mi North 3.5 mph - N/A   Overcast
5:36 PM 51.8 °F - 48.2 °F 88% 30.26 in 10.0 mi NNW 3.5 mph - 0.00 in   Overcast
5:49 PM 51.8 °F - 48.2 °F 88% 30.26 in 10.0 mi NNE 3.5 mph - 0.00 in   Overcast
5:53 PM 52.0 °F - 48.0 °F 86% 30.27 in 10.0 mi Calm Calm - 0.00 in   Overcast
6:53 PM 51.1 °F - 48.0 °F 89% 30.27 in 10.0 mi Calm Calm - 0.01 in Rain Light Rain
7:27 PM 50.0 °F - 48.2 °F 94% 30.26 in 10.0 mi Calm Calm - 0.00 in   Overcast
7:53 PM 50.0 °F - 48.0 °F 93% 30.27 in 10.0 mi Calm Calm - 0.00 in   Overcast
8:45 PM 50.0 °F - 48.2 °F 94% 30.28 in 10.0 mi Calm Calm - N/A   Overcast
8:53 PM 48.9 °F - 46.9 °F 93% 30.28 in 10.0 mi Calm Calm - N/A   Overcast
9:01 PM 50.0 °F - 46.4 °F 87% 30.29 in 10.0 mi Variable 3.5 mph - N/A   Overcast
9:53 PM 48.9 °F - 42.1 °F 77% 30.31 in 10.0 mi NW 3.5 mph - N/A   Overcast
10:53 PM 46.9 °F - 39.9 °F 77% 30.32 in 10.0 mi NNW 4.6 mph - N/A   Clear
11:53 PM 46.0 °F 43.9 °F 39.9 °F 79% 30.32 in 10.0 mi NW 4.6 mph - N/A   Clear